Regional Weather Roundup
Issued by NWS

Home | Current Version | Previous Version | Graphics & Text | Print | Product List | Glossary On
Versions: 1 2 3 4 5 6 7 8 9 10 11 12 13 14 15 16 17 18 19 20 21 22 23 24 25 26 27 28 29 30 31 32 33 34 35 36 37 38 39 40 41 42 43 44 45 46 47 48 49 50
096
ASUS43 KMPX 281601
RWRMN
WEATHER ROUNDUP FOR MINNESOTA
NATIONAL WEATHER SERVICE TWIN CITIES/CHANHASSEN MN
1100 AM CDT THU APR 28 2016


NOTE: "FAIR" INDICATES FEW OR NO CLOUDS BELOW 12,000 FEET WITH NO
SIGNIFICANT WEATHER AND/OR OBSTRUCTIONS TO VISIBILITY. N/A MEANS
CURRENT SKY AND/OR WEATHER CONDITIONS ARE NOT AVAILABLE.

MNZ060>063-068>070-281700-
   Twin Cities Metro

CITY           SKY/WX    TMP DP  RH WIND       PRES   REMARKS
TWIN CITIES    LGT RAIN  38  33  82 NE13      29.97S
ST PAUL        LGT RAIN  39  34  82 E10       29.99S
CRYSTAL        LGT RAIN  39  34  82 E9        29.98R
BLAINE         LGT RAIN  39  37  93 NE13G18   29.98R
EDEN PRAIRIE   LGT RAIN  38  33  82 NE9       29.96R
SOUTH ST PAUL  CLOUDY    38  36  94 NE5       29.97S
LAKE ELMO      DRIZZLE   37  34  87 NE14      29.99R
$$
MNZ001>005-007-008-013>017-022>024-027-028-281700-
   Northwest Minnesota

CITY           SKY/WX    TMP DP  RH WIND       PRES   REMARKS
BEMIDJI        CLOUDY    46  19  34 E13       30.09S
HALLOCK        CLOUDY    48  14  25 NE12      30.16S
ROSEAU         CLOUDY    46  27  46 NE15      30.17F
WARROAD        PTSUNNY   43  27  52 NE13G18   30.19S
THIEF RVR FALL CLOUDY    46  19  34 NE12G18   30.14S
CROOKSTON      CLOUDY    48  19  32 E12       30.13S
FOSSTON        CLOUDY    45  18  33 E10       30.10S
MOORHEAD       CLOUDY    48  21  34 NE10      30.07F
PARK RAPIDS    CLOUDY    46  16  30 NE10      30.05R
MAHNOMEN       PTSUNNY   46  18  33 NE9       30.07S
$$
MNZ006-009>011-018-025>026-281700-
   North Central Minnesota

CITY           SKY/WX    TMP DP  RH WIND       PRES   REMARKS
BAUDETTE       PTSUNNY   48  17  29 NE8       30.15F
FLAG ISLAND    MOSUNNY   43  21  42 N9        30.19S
INTL FALLS     PTSUNNY   45  20  36 NE9       30.15S
WASKISH        CLOUDY    46  21  36 E10       30.13S
BIG FORK       CLOUDY    48  19  32 NE9       30.11S
LONGVILLE      PTSUNNY   46  18  31 NE9       30.06R
GRAND RAPIDS   CLOUDY    46  18  31 E7        30.09R
CRANE LAKE     CLOUDY    43  19  39 N5        30.16S
ORR            CLOUDY    46  14  27 N6        30.10S
COOK           CLOUDY    45  21  39 E7        30.12R
WALKER         FAIR      43  18  36 NE12G17   30.07R
$$
MNZ012-019>021-037-281700-
   Northeast Minnesota

CITY           SKY/WX    TMP DP  RH WIND       PRES   REMARKS
DULUTH         PTSUNNY   43  24  47 E20       30.07R
ELY            MOSUNNY   45  18  33 E7        30.11S
HIBBING        CLOUDY    44  21  40 E8        30.09R
EVELETH        CLOUDY    45  19  36 E10G17    30.10R
DULUTH HARBOR  CLOUDY    39  36  87 NE23G29   30.10R
TWO HARBORS    CLOUDY    46  30  53 E18       30.08R
SILVER BAY     CLOUDY    46  25  42 NE16G24   30.09S
GRAND MARAIS     N/A     40  30  67 E12       30.14S
G MARAIS ARPRT CLOUDY    43  19  39 NE13      30.12S
$$
MNZ029>031-032-039>041-046>048-054>057-064-281700-
   West Central Minnesota

CITY           SKY/WX    TMP DP  RH WIND       PRES   REMARKS
FERGUS FALLS   CLOUDY    43  21  42 NE8       30.02S
WHEATON        CLOUDY    45  28  53 NE7       30.05R
MORRIS         DRIZZLE   41  28  60 E8        30.01R
ALEXANDRIA       N/A     43  24  47 NE12      30.01R
ELBOW LAKE     DRIZZLE   42  22  46 E6        30.01S
WADENA         MOSUNNY   45  19  36 NE15      30.02R
GLENWOOD       CLOUDY    43  28  56 E14       30.00R
APPLETON       LGT SNOW  34  32  93 E5        30.02R VSB 3/4 WCI  30
BENSON         LGT SNOW  36  30  80 E3        30.01R
ORTONVILLE     DRIZZLE   37  32  81 NE9       30.02R
MADISON        CLOUDY    37  36  93 NE15      30.01R
WILLMAR        LGT SNOW  34  34 100 NE6       30.00R WCI  29
$$
MNZ033>034-036-042>043-049>051-058-059-281700-
   Central Minnesota

CITY           SKY/WX    TMP DP  RH WIND       PRES   REMARKS
ST CLOUD       CLOUDY    40  28  62 VRB7      30.00R
SAUK CENTRE    CLOUDY    42  24  48 E15       30.00R
PAYNESVILLE    LGT RAIN  37  31  78 E9        30.00R
AITKIN         CLOUDY    48  16  27 NE9G17    30.02S
PINE RIVER     CLOUDY    45  21  39 E10G18    30.08R
BRAINERD       CLOUDY    45  17  32 NE13G20   30.03R
STAPLES        PTSUNNY   46  16  29 NE13G18   30.02R
LONG PRAIRIE   CLOUDY    41  27  56 NE8       30.00S
LITTLE FALLS   CLOUDY    43  23  45 E5        30.01R
LITCHFIELD     LGT SNOW  36  36 100 NE5       29.99R
BUFFALO        LGT RAIN  37  33  85 NE10G16   30.00R
MAPLE LAKE     LGT RAIN  38  35  89 NE12      30.00R
HUTCHINSON     LGT RAIN  37  36  95 NE13G20   29.98R
$$
MNZ037-044-045-052-053-281700-
   East Central Minnesota

CITY           SKY/WX    TMP DP  RH WIND       PRES   REMARKS
PRINCETON        N/A     43  27  52 E6        30.01R
MORA           MOSUNNY   46  23  39 E7        30.03R
CAMBRIDGE      PTSUNNY   46  28  49 E6        29.99S
RUSH CITY      CLOUDY    45  24  43 NE7       30.01S
MOOSE LAKE     CLOUDY    43  28  56 NE9G20    30.03R
HINCKLEY       PTSUNNY   48  25  40 E8        30.02S
CLOQUET        CLOUDY    43  21  42 E15G22    30.06R
MCGREGOR       PTSUNNY   46  23  39 E10G16    30.04S
$$
MNZ071>073-080-081-089-090-097-098-281700-
   Southwest Minnesota

CITY           SKY/WX    TMP DP  RH WIND       PRES   REMARKS
MONTEVIDEO     LGT RAIN  36  36 100 E13       30.02R
GRANITE FALLS  LGT RAIN  38  34  86 NE12      30.01R
CANBY          CLOUDY    39  37  92 N10       30.01R
MARSHALL       CLOUDY    38  33  82 NE13      29.97R
REDWOOD FALLS  CLOUDY    38  33  82 NE10G17   29.97R
OLIVIA         LGT SNOW  34  32  93 NE8       29.98R WCI  27
PIPESTONE      DRIZZLE   37  36  93 NE12      29.94R
WINDOM         CLOUDY    39  37  93 NE12      29.92R
WORTHINGTON    CLOUDY    38  36  92 NE14      29.92R
JACKSON        CLOUDY    41  34  75 NE14      29.91R
TRACY          CLOUDY    39  35  87 NE12      29.96R
SLAYTON        CLOUDY    37  37 100 N13       29.93R FOG
$$
MNZ065>067-074>077-082>085-091>093-281700-
   South Central Minnesota

CITY           SKY/WX    TMP DP  RH WIND       PRES   REMARKS
MANKATO        CLOUDY    39  34  81 NE13      29.93R
NEW ULM        CLOUDY    39  36  87 NE10G18   29.94R
ST JAMES       CLOUDY    37  30  75 NE9       29.93R
FAIRMONT       CLOUDY    39  28  65 NE10      29.90R
GLENCOE        LGT RAIN  38  37  95 NE8       29.96R
OWATONNA       CLOUDY    39  34  81 NE17      29.92R
WASECA         CLOUDY    39  36  87 NE14      29.93R
ALBERT LEA     CLOUDY    41  37  87 E12       29.88R
$$
MNZ078>079-086>088-094>096-281700-
   Southeast Minnesota

CITY           SKY/WX    TMP DP  RH WIND       PRES   REMARKS
ROCHESTER      CLOUDY    40  35  83 E14       29.91R
RED WING       CLOUDY    39  34  81 E12G17    29.95R
STANTON        CLOUDY    39  33  80 NE10G18   29.94R
DODGE CENTER   CLOUDY    39  36  87 E15       29.90S
WINONA         CLOUDY    41  32  70 E6        29.94R
AUSTIN         CLOUDY    41  36  81 E13       29.88R
PRESTON        CLOUDY    40  33  76 NE8       29.89R
$$
ABBREVIATIONS USED IN REMARKS
   TC - TEMPERATURES IN CELSIUS
  WCI - WIND CHILL INDEX
   HX - HEAT INDEX
  VSB - VISIBILITY
$$




USA.gov is the U.S. government's official web portal to all federal, state and local government web resources and services.